CW8254 Weather Reports


time (UTC)temp
F
wind
direction
speed
knots
gust
knots
rain 1hr
in
rain 24hr
in
rain mn
in
humidity
%
barometer
mb
20260505193725 55 0 0.9 5.2 0.00 0.00 0.00 58 1014.1
20260505193225 56 0 3.5 5.2 0.00 0.00 0.00 57 1014.1
20260505191725 56 248 1.7 4.3 0.00 0.00 0.00 56 1014.1
20260505191224 56 338 2.6 4.3 0.00 0.00 0.00 56 1014.1
20260505190724 56 135 3.5 3.5 0.00 0.00 0.00 56 1014.1
20260505190225 57 248 0.0 3.5 0.00 0.00 0.00 55 1014.1
20260505185724 57 292 0.9 3.5 0.00 0.00 0.00 55 1014.1
20260505185224 57 158 1.7 4.3 0.00 0.00 0.00 55 1014.1
20260505184725 57 315 1.7 5.2 0.00 0.00 0.00 54 1014.1
20260505184225 57 135 2.6 5.2 0.00 0.00 0.00 54 1014.1
20260505183725 58 292 1.7 5.2 0.00 0.00 0.00 53 1014.1
20260505183225 58 0 3.5 5.2 0.00 0.00 0.00 53 1014.1
20260505182725 58 0 3.5 4.3 0.00 0.00 0.00 53 1014.1
20260505181724 58 338 1.7 5.2 0.00 0.00 0.00 53 1014.1
20260505180724 59 315 2.6 5.2 0.00 0.00 0.00 52 1014.1
20260505175724 59 0 1.7 5.2 0.00 0.00 0.00 52 1014.1
20260505174726 60 338 2.6 4.3 0.00 0.00 0.00 51 1014.1
20260505174224 60 0 2.6 5.2 0.00 0.00 0.00 51 1014.1
20260505173225 60 292 2.6 5.2 0.00 0.00 0.00 51 1014.1
20260505172725 60 0 2.6 4.3 0.00 0.00 0.00 51 1014.1
20260505171724 61 0 2.6 4.3 0.00 0.00 0.00 50 1014.1
20260505170725 62 0 1.7 6.1 0.00 0.00 0.00 49 1014.1
20260505170225 62 0 1.7 6.1 0.00 0.00 0.00 49 1014.1
20260505165725 62 315 3.5 5.2 0.00 0.00 0.00 49 1014.1
20260505165224 63 338 3.5 5.2 0.00 0.00 0.00 48 1014.1
20260505164725 63 338 3.5 6.1 0.00 0.00 0.00 48 1014.1
20260505164225 64 315 2.6 6.1 0.00 0.00 0.00 48 1014.1
20260505163724 64 338 1.7 6.1 0.00 0.00 0.00 48 1014.1
20260505163224 64 0 2.6 7.8 0.00 0.00 0.00 48 1014.1
20260505162724 64 0 4.3 7.8 0.00 0.00 0.00 48 1014.1
20260505162225 64 0 3.5 7.8 0.00 0.00 0.00 48 1014.1
20260505161725 64 0 2.6 6.1 0.00 0.00 0.00 48 1014.1
20260505161224 64 0 3.5 6.1 0.00 0.00 0.00 48 1014.1
20260505160726 64 135 4.3 5.2 0.00 0.00 0.00 48 1014.1
20260505153226 66 338 3.5 5.2 0.00 0.00 0.00 47 1014.1
20260505152224 66 135 2.6 6.1 0.00 0.00 0.00 47 1014.1
20260505151726 66 202 2.6 7.8 0.00 0.00 0.00 46 1014.1
20260505151224 66 135 3.5 7.8 0.00 0.00 0.00 46 1014.1
20260505150725 65 0 3.5 7.8 0.00 0.00 0.00 46 1014.1
20260505150224 66 315 2.6 7.8 0.00 0.00 0.00 47 1014.1
20260505140224 66 0 3.5 6.1 0.00 0.00 0.00 49 1014.1
20260505124725 64 135 1.7 7.0 0.00 0.00 0.00 55 1014.1
20260505124224 64 0 2.6 5.2 0.00 0.00 0.00 54 1014.1
20260505123726 63 338 3.5 6.1 0.00 0.00 0.00 55 1014.1
20260505123225 63 315 3.5 6.1 0.00 0.00 0.00 55 1014.1
20260505122746 63 338 1.7 7.0 0.00 0.00 0.00 56 1014.1
20260505122224 63 158 2.6 7.0 0.00 0.00 0.00 56 1014.1
20260505121225 62 338 2.6 7.0 0.00 0.00 0.00 58 1014.1
20260505120725 62 135 1.7 7.0 0.00 0.00 0.00 57 1014.1
20260505120226 62 338 2.6 7.0 0.00 0.00 0.00 58 1014.1
20260505115724 62 338 5.2 7.0 0.00 0.00 0.00 58 1014.1
20260505115224 62 0 4.3 7.0 0.00 0.00 0.00 59 1014.1
20260505114726 61 0 3.5 7.0 0.00 0.00 0.00 59 1014.1
20260505114224 61 0 1.7 6.1 0.00 0.00 0.00 59 1014.1
20260505113726 61 202 3.5 6.1 0.00 0.00 0.00 59 1014.1
20260505113224 61 135 3.5 7.0 0.00 0.00 0.00 59 1014.1
20260505112724 61 338 4.3 7.8 0.00 0.00 0.00 60 1014.1
20260505112225 61 315 3.5 8.7 0.00 0.00 0.00 60 1014.1
20260505111723 61 338 3.5 8.7 0.00 0.00 0.00 60 1014.1
20260505110724 61 315 2.6 9.6 0.00 0.00 0.00 61 1014.1
20260505110226 61 0 1.7 9.6 0.00 0.00 0.00 61 1014.1
20260505101725 60 0 5.2 7.8 0.00 0.00 0.00 63 1015.1
20260505101225 60 315 2.6 7.8 0.00 0.00 0.00 63 1015.1
20260505100724 60 0 5.2 6.1 0.00 0.00 0.00 64 1015.1
20260505095725 60 338 4.3 7.0 0.00 0.00 0.00 64 1015.1
20260505095224 60 338 2.6 7.0 0.00 0.00 0.00 64 1015.1
20260505094726 59 338 3.5 7.0 0.00 0.00 0.00 65 1015.1
20260505094224 59 0 2.6 8.7 0.00 0.00 0.00 65 1015.1
20260505093225 59 315 3.5 8.7 0.00 0.00 0.00 64 1015.1
20260505092724 59 315 3.5 6.1 0.00 0.00 0.00 65 1015.1
20260505092224 59 338 3.5 7.8 0.00 0.00 0.00 67 1015.1
20260505091724 59 0 3.5 7.8 0.00 0.00 0.00 66 1015.1
20260505091226 59 0 3.5 7.0 0.00 0.00 0.00 67 1015.1
20260505090725 58 0 5.2 7.0 0.00 0.00 0.00 68 1015.1
20260505085724 58 0 5.2 7.0 0.00 0.00 0.00 69 1015.1
20260505085224 57 0 2.6 7.0 0.00 0.00 0.00 69 1015.1
20260505084726 57 315 4.3 7.0 0.00 0.00 0.00 69 1015.1
20260505083726 57 292 2.6 7.0 0.00 0.00 0.00 72 1015.1
20260505083224 57 0 2.6 7.0 0.00 0.00 0.00 72 1015.1
20260505082225 56 0 5.2 9.6 0.00 0.00 0.00 72 1015.1
20260505081725 56 315 2.6 9.6 0.00 0.00 0.00 73 1015.1
20260505081224 56 0 3.5 7.8 0.00 0.00 0.00 73 1015.1
20260505080724 56 0 4.3 7.8 0.00 0.00 0.00 73 1015.1
20260505080225 56 338 4.3 8.7 0.00 0.00 0.00 74 1015.1
20260505075724 56 338 6.1 8.7 0.00 0.00 0.00 74 1015.1
20260505075224 55 338 3.5 8.7 0.00 0.00 0.00 75 1015.1
20260505074724 55 315 4.3 9.6 0.00 0.00 0.00 76 1015.1
20260505073724 55 0 3.5 7.0 0.00 0.00 0.00 77 1014.1
20260505073224 55 0 5.2 7.0 0.00 0.00 0.00 78 1014.1
20260505072725 55 0 3.5 7.0 0.00 0.00 0.00 78 1014.1
20260505072224 55 338 3.5 10.4 0.00 0.00 0.00 78 1015.1
20260505071726 55 315 4.3 10.4 0.00 0.00 0.00 78 1015.1
20260505071224 55 0 3.5 10.4 0.00 0.00 0.00 78 1015.1
20260505065725 54 315 4.3 10.4 0.00 0.00 0.00 80 1015.1
20260505065225 54 315 5.2 8.7 0.00 0.00 0.00 81 1015.1
20260505064224 53 315 5.2 8.7 0.00 0.00 0.00 81 1015.1
20260505063226 54 338 3.5 7.8 0.00 0.00 0.00 82 1015.1
20260505062724 53 338 6.1 7.8 0.00 0.00 0.00 82 1015.1
20260505061725 53 338 5.2 8.7 0.00 0.00 0.00 83 1015.1
20260505061224 53 338 3.5 7.8 0.00 0.00 0.00 83 1015.1
20260505055226 52 0 3.5 5.2 0.00 0.00 0.00 84 1015.1
20260505054236 52 315 3.5 4.3 0.00 0.00 0.00 84 1015.1
20260505053725 52 338 2.6 3.5 0.00 0.00 0.00 84 1015.1
20260505053224 52 202 2.6 3.5 0.00 0.00 0.00 84 1015.1
20260505052725 52 0 2.6 4.3 0.00 0.00 0.00 84 1015.1
20260505052226 51 292 2.6 4.3 0.00 0.00 0.00 84 1015.1
20260505051224 51 338 2.6 3.5 0.00 0.00 0.00 84 1015.1
20260505050725 51 338 1.7 2.6 0.00 0.00 0.00 84 1015.1
20260505050224 51 270 0.9 3.5 0.00 0.00 0.00 84 1015.1
20260505041724 52 315 0.9 3.5 0.00 0.00 0.00 84 1015.1
20260505041224 52 0 1.7 3.5 0.00 0.00 0.00 84 1015.1
20260505040724 52 0 2.6 2.6 0.00 0.00 0.00 84 1015.1
20260505040225 52 0 1.7 2.6 0.00 0.00 0.00 84 1015.1
20260505035724 52 0 0.0 2.6 0.00 0.00 0.00 84 1015.1
20260505035225 52 202 0.0 2.6 0.00 0.00 0.00 84 1015.1
20260505034725 52 0 0.0 1.7 0.00 0.00 0.00 84 1015.1
20260505034226 52 292 0.0 3.5 0.00 0.00 0.00 84 1015.1
20260505033725 52 292 0.9 3.5 0.00 0.00 0.00 84 1015.1
20260505033224 52 180 0.9 3.5 0.00 0.00 0.00 84 1015.1
20260505032724 52 0 0.9 3.5 0.00 0.00 0.00 84 1015.1
20260505032225 52 0 1.7 3.5 0.00 0.00 0.00 84 1015.1
20260505031724 52 0 1.7 2.6 0.00 0.00 0.00 84 1015.1
20260505031224 52 0 0.9 3.5 0.00 0.00 0.00 84 1015.1
20260505030224 52 315 0.9 3.5 0.00 0.00 0.00 84 1015.1
20260505025724 52 0 2.6 3.5 0.00 0.00 0.00 84 1015.1
20260505025225 52 338 2.6 3.5 0.00 0.00 0.00 84 1016.1
20260505024724 53 315 1.7 4.3 0.00 0.00 0.00 84 1016.1
20260505024224 53 338 1.7 4.3 0.00 0.00 0.00 84 1016.1
20260505023724 53 0 1.7 4.3 0.00 0.00 0.00 84 1016.1
20260505023224 53 0 0.9 5.2 0.00 0.00 0.00 84 1016.1
20260505022725 53 0 2.6 5.2 0.00 0.00 0.00 84 1016.1
20260505022224 53 135 1.7 5.2 0.00 0.00 0.00 84 1016.1
20260505021726 53 135 2.6 4.3 0.00 0.00 0.00 84 1016.1
20260505021225 53 0 1.7 5.2 0.00 0.00 0.00 83 1016.1
20260505020724 53 292 1.7 5.2 0.00 0.00 0.00 83 1016.1
20260505020224 53 0 2.6 4.3 0.00 0.00 0.00 83 1016.1
20260505015724 53 0 1.7 5.2 0.00 0.00 0.00 83 1016.1
20260505015224 53 135 1.7 5.2 0.00 0.00 0.00 83 1016.1
20260505014725 53 0 3.5 3.5 0.00 0.00 0.00 83 1016.1
20260505013724 53 0 1.7 7.0 0.00 0.00 0.00 83 1016.1
20260505013226 53 315 2.6 3.5 0.00 0.00 0.00 83 1016.1
20260505012724 53 0 1.7 5.2 0.00 0.00 0.00 83 1016.1
20260505012224 53 338 2.6 5.2 0.00 0.00 0.00 83 1016.1
20260505011724 53 202 2.6 3.5 0.00 0.00 0.00 83 1016.1
20260505011224 53 0 1.7 3.5 0.00 0.00 0.00 84 1016.1
20260505010726 53 315 0.0 3.5 0.00 0.00 0.00 84 1016.1
20260505010224 53 0 0.9 3.5 0.00 0.00 0.00 84 1016.1
20260505005725 53 338 2.6 3.5 0.00 0.00 0.00 84 1016.1
20260505005225 53 180 1.7 3.5 0.00 0.00 0.00 84 1016.1
20260505004725 53 338 1.7 3.5 0.00 0.00 0.00 84 1016.1
20260505004226 53 338 1.7 3.5 0.00 0.00 0.00 84 1016.1
20260505002725 53 202 0.9 3.5 0.00 0.00 0.00 84 1016.1
20260505002224 54 0 0.9 5.2 0.00 0.00 0.00 84 1017.1
20260505001224 53 0 0.0 5.2 0.00 0.00 0.00 84 1017.1
20260505000726 54 135 1.7 5.2 0.00 0.00 0.00 83 1016.1
20260504235725 54 0 3.5 5.2 0.00 0.00 0.00 83 1016.1
20260504234724 54 292 1.7 4.3 0.00 0.00 0.00 83 1017.1
20260504234224 54 202 0.9 4.3 0.00 0.00 0.00 83 1017.1
20260504233725 54 135 0.9 4.3 0.00 0.00 0.00 83 1017.1
20260504233224 54 0.0 4.3 0.00 0.00 0.00 84 1017.1
20260504232733 54 0 1.7 5.2 0.00 0.00 0.00 83 1017.1
20260504232248 54 0.0 5.2 0.00 0.00 0.00 83 1017.1
20260504231725 54 338 3.5 5.2 0.00 0.00 0.00 83 1017.1
20260504231224 54 0 0.9 4.3 0.00 0.00 0.00 83 1017.1
20260504230724 54 135 0.9 3.5 0.00 0.00 0.00 83 1017.1
20260504224724 54 135 1.7 3.5 0.00 0.00 0.00 84 1017.1
20260504224226 54 292 0.0 3.5 0.00 0.00 0.00 84 1017.1
20260504223724 54 338 1.7 3.5 0.00 0.00 0.00 84 1017.1
20260504223224 54 292 0.0 3.5 0.00 0.00 0.00 84 1017.1
20260504222725 54 292 0.9 3.5 0.00 0.00 0.00 84 1017.1
20260504221224 54 292 0.9 4.3 0.00 0.00 0.00 84 1017.1
20260504220224 54 0 2.6 5.2 0.00 0.00 0.00 84 1017.1
20260504215724 54 315 1.7 5.2 0.00 0.00 0.00 84 1017.1
20260504214724 55 338 2.6 3.5 0.00 0.00 0.00 83 1017.1
20260504214225 55 135 1.7 3.5 0.00 0.00 0.00 83 1017.1
20260504213726 55 292 1.7 3.5 0.00 0.00 0.00 84 1017.1
20260504212225 55 338 2.6 5.2 0.00 0.00 0.00 83 1017.1
20260504211724 55 0 3.5 5.2 0.00 0.00 0.00 82 1017.1
20260504211224 55 0 2.6 5.2 0.00 0.00 0.00 82 1017.1
20260504210224 55 0 2.6 3.5 0.00 0.00 0.00 82 1017.1
20260504205726 55 270 1.7 4.3 0.00 0.00 0.00 82 1017.1
20260504204724 55 292 1.7 3.5 0.00 0.00 0.00 81 1017.1
20260504204224 55 0 2.6 3.5 0.00 0.00 0.00 81 1017.1
20260504203724 56 338 0.9 3.5 0.00 0.00 0.00 81 1017.1
20260504203225 56 180 1.7 3.5 0.00 0.00 0.00 81 1017.1
20260504202724 56 0 1.7 3.5 0.00 0.00 0.00 81 1017.1
20260504202225 56 0 2.6 2.6 0.00 0.00 0.00 81 1017.1
20260504201225 56 292 0.9 5.2 0.00 0.00 0.00 80 1017.1
20260504200725 56 158 1.7 5.2 0.00 0.00 0.00 80 1017.1
20260504195224 56 292 2.6 3.5 0.00 0.00 0.00 79 1017.1
20260504194226 56 315 1.7 3.5 0.00 0.00 0.00 79 1017.1